Marshfield, WI

12:38 AM CDT on May 28, 2018 (GMT -0500)
Marshfield Municipal

Weather History for KMFI - March, 2013

Change the Weather History Date:

Saturday, March 9, 2013

  Actual Average Record
Temperature  
Mean Temperature 32 °F -  
Max Temperature 36 °F 37 °F 54 °F (1930)
Min Temperature 28 °F 15 °F -10 °F (1975)
Degree Days  
Heating Degree Days 33    
Moisture  
Dew Point 29 °F    
Average Humidity 88    
Maximum Humidity 100    
Minimum Humidity 75    
Precipitation  
Precipitation 0.11 in - - ()
Sea Level Pressure  
Sea Level Pressure 29.92 in    
Wind  
Wind Speed 9 mph (SE)    
Max Wind Speed 14 mph    
Max Gust Speed 21 mph    
Visibility 4 miles    
Events Rain , Snow    
Averages and records for this station are not official NWS values.
T = Trace of Precipitation, MM = Missing Value Source: NWS Daily Summary

Daily Weather History Graph

Daily Weather History Graph

Search for Another Location

Airport or City:

Astronomy

Mar. 09, 2013 Rise Set
Actual Time 6:23 AM CST 5:59 PM CST
Civil Twilight 5:54 AM CST 6:28 PM CST
Nautical Twilight 5:20 AM CST 7:02 PM CST
Astronomical Twilight 4:46 AM CST 7:36 PM CST
Moon 4:51 AM CST (3/9) 3:58 PM CST (3/9)
Length of Visible Light 12h 34m
Length of Day
11h 35m
Waning Crescent, 5% of the Moon is Illuminated
Mar 9
Waning Crescent
Mar 11
New
Mar 19
First Quarter
Mar 27
Full
Apr 2
Last Quarter

Hourly Weather History & Observations

Time (CST) Temp. Windchill Dew Point Humidity Pressure Visibility Wind Dir Wind Speed Gust Speed Precip Events Conditions
12:54 AM 28.9 °F 21.1 °F 21.9 °F 75% 30.23 in 9.0 mi SE 8.1 mph - N/A   Clear
1:54 AM 28.9 °F 21.9 °F 21.9 °F 75% 30.20 in 9.0 mi SE 6.9 mph - N/A   Clear
2:54 AM 28.9 °F 21.1 °F 21.9 °F 75% 30.17 in 9.0 mi SE 8.1 mph - N/A   Mostly Cloudy
3:54 AM 30.0 °F 24.1 °F 23.0 °F 75% 30.15 in 10.0 mi SE 5.8 mph - N/A   Overcast
4:54 AM 28.9 °F 21.9 °F 23.0 °F 78% 30.15 in 8.0 mi SE 6.9 mph - N/A   Overcast
5:54 AM 28.9 °F 21.9 °F 23.0 °F 78% 30.14 in 8.0 mi ESE 6.9 mph - N/A   Overcast
6:54 AM 28.9 °F 21.1 °F 24.1 °F 82% 30.12 in 6.0 mi ESE 8.1 mph - N/A   Haze
7:54 AM 30.0 °F 21.1 °F 24.1 °F 79% 30.10 in 6.0 mi SE 10.4 mph - N/A   Haze
8:54 AM 32.0 °F 23.6 °F 26.1 °F 79% 30.06 in 2.0 mi SE 10.4 mph - 0.00 in Snow Light Snow
9:01 AM 32.0 °F 24.2 °F 26.6 °F 80% 30.01 in 1.8 mi SE 9.2 mph - 0.00 in Snow Light Snow
9:10 AM 30.2 °F 21.3 °F 26.6 °F 86% 30.01 in 2.5 mi SE 10.4 mph - 0.00 in Snow Light Snow
9:28 AM 30.2 °F 21.9 °F 26.6 °F 86% 30.00 in 3.0 mi SE 9.2 mph - 0.00 in Snow Light Snow
9:54 AM 30.9 °F 21.2 °F 27.0 °F 85% 30.03 in 4.0 mi ESE 12.7 mph - 0.00 in   Overcast
10:54 AM 33.1 °F 23.4 °F 28.0 °F 82% 30.01 in 5.0 mi SE 13.8 mph - N/A   Haze
11:12 AM 33.8 °F 24.8 °F 28.4 °F 81% 29.95 in 6.0 mi SE 12.7 mph 20.7 mph N/A   Haze
11:41 AM 33.8 °F 25.3 °F 28.4 °F 81% 29.94 in 5.0 mi SE 11.5 mph - N/A   Overcast
11:54 AM 33.1 °F 23.9 °F 28.9 °F 85% 29.97 in 5.0 mi SE 12.7 mph - N/A   Overcast
12:11 PM 33.8 °F 24.8 °F 28.4 °F 81% 29.92 in 6.0 mi SE 12.7 mph - N/A   Overcast
12:54 PM 34.0 °F 26.6 °F 28.9 °F 82% 29.94 in 6.0 mi SE 9.2 mph - N/A   Haze
1:54 PM 35.1 °F 27.4 °F 30.0 °F 82% 29.89 in 7.0 mi SE 10.4 mph - N/A   Overcast
2:39 PM 35.6 °F 27.5 °F 30.2 °F 81% 29.84 in 6.0 mi SSE 11.5 mph - 0.00 in Rain Light Rain
2:54 PM 36.0 °F 28.0 °F 30.9 °F 82% 29.88 in 4.0 mi SSE 11.5 mph - 0.00 in Rain Light Rain
3:11 PM 35.6 °F 28.0 °F 32.0 °F 87% 29.82 in 4.0 mi SE 10.4 mph - 0.01 in Rain Light Rain
3:42 PM 33.8 °F 25.8 °F 32.0 °F 93% 29.80 in 2.5 mi ESE 10.4 mph - 0.03 in Rain Rain
3:54 PM 34.0 °F 26.0 °F 32.0 °F 92% 29.85 in 2.0 mi SE 10.4 mph - 0.06 in Rain Rain
4:22 PM 33.8 °F 24.3 °F 32.0 °F 93% 29.78 in 2.5 mi SE 13.8 mph - 0.03 in Rain Rain
4:33 PM 35.6 °F 27.5 °F 33.8 °F 93% 29.79 in 3.0 mi SE 11.5 mph - 0.03 in Rain Light Rain
4:54 PM 35.1 °F 26.4 °F 33.1 °F 92% 29.83 in 3.0 mi SE 12.7 mph - 0.03 in Rain Light Rain
5:54 PM 35.1 °F 26.9 °F 33.1 °F 92% 29.83 in 5.0 mi SSE 11.5 mph - 0.00 in Rain Light Rain
6:19 PM 33.8 °F 24.8 °F 33.8 °F 100% 29.78 in 4.0 mi SSE 12.7 mph - 0.01 in Rain Light Rain
6:54 PM 34.0 °F 26.6 °F 33.1 °F 96% 29.83 in 3.0 mi SSE 9.2 mph - 0.01 in Rain Light Rain
7:54 PM 34.0 °F 26.6 °F 33.1 °F 96% 29.81 in 5.0 mi SE 9.2 mph - 0.00 in Rain Light Rain
8:54 PM 34.0 °F 27.2 °F 33.1 °F 96% 29.81 in 3.0 mi SSE 8.1 mph - 0.00 in Rain Light Rain
9:11 PM 33.8 °F 27.0 °F 33.8 °F 100% 29.77 in 2.5 mi SSE 8.1 mph - 0.00 in Rain Light Rain
9:20 PM 33.8 °F 26.4 °F 33.8 °F 100% 29.76 in 3.0 mi SSE 9.2 mph - 0.00 in   Overcast
9:54 PM 34.0 °F 27.2 °F 34.0 °F 100% 29.80 in 2.5 mi South 8.1 mph - 0.00 in   Overcast
10:18 PM 33.8 °F 26.4 °F 33.8 °F 100% 29.77 in 1.5 mi South 9.2 mph - 0.01 in Snow Light Snow
10:36 PM 33.8 °F 27.7 °F 33.8 °F 100% 29.78 in 2.5 mi South 6.9 mph - 0.01 in   Overcast
10:54 PM 34.0 °F 29.8 °F 34.0 °F 100% 29.81 in 1.5 mi South 4.6 mph - 0.01 in Rain Light Rain
11:47 PM 33.8 °F - 33.8 °F 100% 29.75 in 1.0 mi Calm Calm - 0.00 in Rain Light Rain
11:54 PM 34.0 °F - 33.1 °F 96% 29.79 in 0.8 mi Calm Calm - 0.00 in   Mist